User: anonymous
Location: Copper Breaks State Park
(34.1132°N, 99.7492°W)
Time: 18:30:58
(UTC-05:00)
Language:

SL-16 R/B - Orbit

View from above orbital plane
View from above orbital plane
View from above satellite
View from above satellite

Ground track
Ground track

The orbit data is extracted from the following two-line orbital elements,

1 27006U 01056F   14243.59030257  .00000021  00000-0  70318-4 0  2171
2 27006 099.1736 048.0525 0015556 095.7322 306.2164 13.70917564636657
Epoch (UTC): 31 August 2014 14:10:02
Eccentricity: 0.0015556
inclination: 99.1736°
perigee height: 985 km
apogee height: 1008 km
right ascension of ascending node: 48.0525°
argument of perigee: 95.7322°
revolutions per day: 13.70917564
mean anomaly at epoch: 306.2164°
orbit number at epoch: 63665

The dashed part of the orbit path shows where the satellite is in the earth's shadow,  

DLR